GW1109 Weather Reports


time (UTC)temp
C
wind
direction
speed
KPH
gust
KPH
rain 1hr
cm
rain 24hr
cm
rain mn
cm
humidity
%
barometer
mb
20260901080049 14 0 0.0 1.6 0.00 0.00 0.00 98 1017.8
20260901074559 15 0 0.0 3.2 0.00 0.00 0.00 97 1017.6
20260901073050 15 5 0.0 3.2 0.00 0.00 0.00 96 1017.8
20260901071557 15 0 0.0 0.0 0.00 0.00 0.00 98 1018.0
20260901070047 15 0 0.0 0.0 0.00 0.00 0.00 96 1018.3
20260901064556 15 0 0.0 0.0 0.00 0.00 0.00 97 1018.0
20260901063052 15 0 0.0 0.0 0.00 0.00 0.00 96 1018.0
20260901061601 15 0 0.0 0.0 0.00 0.00 0.00 95 1017.9
20260901060048 15 0 0.0 0.0 0.00 0.00 0.00 94 1018.0
20260901054558 15 0 0.0 0.0 0.00 0.00 0.00 94 1018.2
20260901053055 15 0 0.0 0.0 0.00 0.00 0.00 94 1018.2
20260901051549 15 0 0.0 0.0 0.00 0.00 0.00 92 1018.1
20260901044557 16 0 0.0 0.0 0.00 0.00 0.00 93 1018.0
20260901043052 15 0 0.0 0.0 0.00 0.00 0.00 93 1018.1
20260901041606 15 0 0.0 0.0 0.00 0.00 0.00 93 1018.2
20260901040110 14 0 0.0 3.2 0.00 0.00 0.00 91 1018.1
20260901034555 15 51 0.0 1.6 0.00 0.00 0.00 89 1018.2
20260901033049 15 0 0.0 3.2 0.00 0.00 0.00 89 1018.2
20260901031553 15 0 0.0 1.6 0.00 0.00 0.00 87 1018.3
20260901030051 15 0 0.0 4.8 0.00 0.00 0.00 87 1018.3
20260901024553 15 0 0.0 3.2 0.00 0.00 0.00 87 1018.2
20260901023050 15 252 0.0 3.2 0.00 0.00 0.00 87 1018.2
20260901021600 15 0 0.0 1.6 0.00 0.00 0.00 88 1018.3
20260901020059 15 0 0.0 0.0 0.00 0.00 0.00 87 1018.3
20260901014554 15 0 0.0 0.0 0.00 0.03 0.00 85 1018.4
20260901013045 15 0 0.0 0.0 0.00 0.03 0.00 83 1018.4
20260901011600 15 0 0.0 0.0 0.00 0.03 0.00 81 1018.4
20260901010056 16 0 0.0 0.0 0.00 0.03 0.00 80 1018.3
20260901004552 16 0 0.0 3.2 0.00 0.03 0.00 78 1018.3
20260901003045 16 196 0.0 6.4 0.00 0.03 0.00 76 1018.3
20260901001602 17 183 3.2 6.4 0.00 0.03 0.00 75 1018.3
20260901000104 17 0 0.0 4.8 0.00 0.03 0.00 73 1018.3
20260831234555 17 0 0.0 3.2 0.00 0.03 0.00 72 1018.2
20260831233049 18 0 1.6 8.0 0.00 0.03 0.00 70 1018.4
20260831231605 18 198 4.8 14.5 0.00 0.03 0.00 68 1018.5
20260831230055 19 184 4.8 11.3 0.00 0.03 0.00 65 1018.6
20260831224552 20 156 0.0 8.0 0.00 0.03 0.00 62 1018.6
20260831223049 21 0 3.2 9.7 0.00 0.03 0.00 60 1018.4
20260831221559 21 136 0.0 11.3 0.00 0.03 0.00 57 1018.5
20260831220055 21 211 3.2 12.9 0.00 0.03 0.00 56 1018.3
20260831214558 21 209 4.8 17.7 0.00 0.03 0.00 56 1018.2
20260831213059 22 134 4.8 17.7 0.00 0.03 0.00 54 1018.2
20260831211558 22 147 6.4 19.3 0.00 0.03 0.00 51 1018.3
20260831210051 22 202 6.4 16.1 0.00 0.03 0.00 50 1018.3
20260831204559 23 200 6.4 17.7 0.00 0.03 0.00 49 1018.4
20260831203046 23 173 4.8 17.7 0.00 0.03 0.00 48 1018.4
20260831201555 23 192 4.8 12.9 0.00 0.03 0.00 47 1018.3
20260831200055 23 135 4.8 17.7 0.00 0.03 0.00 47 1018.2
20260831194623 23 211 8.0 16.1 0.00 0.03 0.00 49 1018.5
20260831193058 23 181 4.8 22.5 0.00 0.03 0.00 47 1018.6
20260831191554 25 169 3.2 9.7 0.00 0.03 0.00 32 1018.8
20260831190057 24 222 0.0 17.7 0.00 0.03 0.00 37 1018.9
20260831184601 24 147 3.2 16.1 0.00 0.03 0.00 35 1019.1
20260831183057 24 221 4.8 12.9 0.00 0.03 0.00 33 1018.9
20260831181600 23 172 4.8 12.9 0.00 0.03 0.00 37 1018.9
20260831180101 23 167 8.0 14.5 0.00 0.03 0.00 42 1019.2
20260831174553 23 240 4.8 12.9 0.00 0.03 0.00 35 1019.3
20260831173100 23 227 4.8 14.5 0.00 0.03 0.00 40 1019.5
20260831171559 23 131 3.2 14.5 0.00 0.03 0.00 41 1019.6
20260831170052 22 238 4.8 14.5 0.00 0.03 0.00 41 1019.7
20260831164610 22 300 4.8 12.9 0.00 0.03 0.00 43 1019.9
20260831163104 22 197 3.2 8.0 0.00 0.03 0.00 41 1019.9
20260831161559 22 144 1.6 14.5 0.00 0.03 0.00 45 1020.1
20260831160049 22 61 4.8 9.7 0.00 0.03 0.00 46 1020.1
20260831154618 22 204 3.2 9.7 0.00 0.03 0.00 47 1020.2
20260831153059 21 355 0.0 11.3 0.00 0.03 0.00 48 1020.4
20260831151552 21 76 3.2 8.0 0.00 0.03 0.00 50 1020.6
20260831150047 20 296 6.4 11.3 0.00 0.03 0.00 54 1020.6
20260831144607 20 343 4.8 14.5 0.00 0.03 0.00 55 1020.6
20260831143101 19 345 4.8 12.9 0.00 0.03 0.00 55 1020.7
20260831141558 19 360 6.4 12.9 0.00 0.03 0.00 55 1020.9
20260831140058 19 315 3.2 9.7 0.00 0.03 0.00 61 1020.8
20260831134551 18 290 4.8 12.9 0.00 0.03 0.00 62 1020.8
20260831133059 18 331 3.2 8.0 0.00 0.03 0.00 63 1020.8
20260831131550 18 294 3.2 11.3 0.00 0.03 0.00 65 1020.7
20260831130105 17 330 3.2 9.7 0.00 0.03 0.00 67 1020.5
20260831124547 17 323 3.2 6.4 0.00 0.03 0.00 70 1020.6
20260831123101 17 302 3.2 8.0 0.00 0.03 0.00 72 1020.6
20260831121553 16 319 3.2 8.0 0.00 0.03 0.00 74 1020.4
20260831120055 16 302 3.2 8.0 0.00 0.03 0.00 78 1020.3
20260831114605 15 336 1.6 6.4 0.00 0.03 0.00 83 1020.2
20260831113100 14 0 0.0 3.2 0.00 0.03 0.00 87 1020.1
20260831111553 13 0 0.0 3.2 0.00 0.03 0.00 90 1020.1
20260831110051 13 0 0.0 3.2 0.00 0.03 0.00 94 1020.1
20260831104559 12 0 0.0 0.0 0.00 0.03 0.00 93 1020.1
20260831103047 12 0 0.0 1.6 0.00 0.03 0.00 91 1019.9
20260831101555 12 0 0.0 1.6 0.00 0.03 0.00 91 1019.6
20260831100108 12 0 0.0 1.6 0.00 0.03 0.00 90 1019.6
20260831094600 12 0 0.0 0.0 0.00 0.03 0.00 89 1019.4
20260831093058 12 0 0.0 0.0 0.00 0.03 0.00 87 1019.3
20260831091601 13 0 0.0 6.4 0.00 0.03 0.00 85 1019.2
20260831090053 13 0 0.0 1.6 0.00 0.03 0.00 86 1019.1
20260831084547 13 0 0.0 1.6 0.00 0.03 0.00 86 1018.9
20260831083055 13 0 0.0 1.6 0.00 0.03 0.00 84 1018.7
20260831081554 14 0 0.0 1.6 0.00 0.03 0.00 82 1018.5